Cas;Teplota [C];Tlak [hPa];Svetlo [lux];Rychlost vetru [km/h];Smer vetru [stupne]
2022-05-22 00:00:01;13,2;1014,74;7;0;0
2022-05-22 00:01:01;13,33;1014,7;8;0;0
2022-05-22 00:02:01;13,45;1014,69;7;0;0
2022-05-22 00:03:01;13,3;1014,68;7;0;0
2022-05-22 00:04:01;13,29;1014,69;7;0;0
2022-05-22 00:05:02;13,28;1014,69;7;0;0
2022-05-22 00:06:01;13,41;1014,71;7;0;0
2022-05-22 00:07:01;13,26;1014,71;7;0;0
2022-05-22 00:08:02;13,19;1014,72;7;0;0
2022-05-22 00:09:01;13,2;1014,78;8;0;0
2022-05-22 00:10:01;13,13;1014,8;7;0;0
2022-05-22 00:11:01;12,93;1014,78;7;0;0
2022-05-22 00:12:02;13,04;1014,76;7;0;0
2022-05-22 00:13:01;13,09;1014,81;7;0;0
2022-05-22 00:14:01;13,11;1014,83;7;0;0
2022-05-22 00:15:01;13,08;1014,81;7;0;0
2022-05-22 00:16:01;13,09;1014,76;7;0;0
2022-05-22 00:17:01;13,11;1014,72;7;0;0
2022-05-22 00:18:01;13,19;1014,73;7;0;0
2022-05-22 00:19:01;13,05;1014,75;7;0;0
2022-05-22 00:20:01;12,97;1014,73;7;0;0
2022-05-22 00:21:01;13,01;1014,74;7;0;0
2022-05-22 00:22:01;12,87;1014,81;6;0;0
2022-05-22 00:23:01;13,02;1014,94;7;0;0
2022-05-22 00:24:01;13,13;1014,9;7;0;0
2022-05-22 00:25:02;13,03;1014,96;7;0;0
2022-05-22 00:26:01;12,98;1014,99;7;0;0
2022-05-22 00:27:01;12,96;1015,03;7;0;0
2022-05-22 00:28:01;13,1;1015,07;7;0;0
2022-05-22 00:29:01;13;1015,04;7;0;0
2022-05-22 00:30:01;13,01;1014,96;7;0;0
2022-05-22 00:31:01;12,9;1015,01;7;0;0
2022-05-22 00:32:01;13,05;1015,04;7;0;0
2022-05-22 00:33:01;13,06;1014,97;7;0;0
2022-05-22 00:34:01;12,94;1014,96;7;0;0
2022-05-22 00:35:01;12,91;1015,03;7;0;0
2022-05-22 00:36:02;12,89;1014,96;7;0;0
2022-05-22 00:37:01;12,99;1014,93;7;0;0
2022-05-22 00:38:01;12,88;1014,98;6;0;0
2022-05-22 00:39:01;12,88;1015,01;7;0;0
2022-05-22 00:40:01;12,83;1014,99;7;0;0
2022-05-22 00:41:01;12,82;1015,11;7;0;0
2022-05-22 00:42:01;12,92;1015,06;6;0;0
2022-05-22 00:43:01;12,94;1015,14;7;0;0
2022-05-22 00:44:01;12,95;1015,04;6;0;0
2022-05-22 00:45:01;12,95;1015,01;6;0;0
2022-05-22 00:46:02;13,01;1015,07;6;0;0
2022-05-22 00:47:01;12,89;1015,08;6;0;0
2022-05-22 00:48:01;12,81;1015,16;7;0;0
2022-05-22 00:49:01;12,72;1015,12;6;0;0
2022-05-22 00:50:01;12,68;1015,16;6;0;0
2022-05-22 00:51:01;12,82;1015,19;7;0;0
2022-05-22 00:52:01;12,59;1015,23;7;0;0
2022-05-22 00:53:01;12,5;1015,15;6;0;0
2022-05-22 00:54:02;12,51;1015,09;6;0;0
2022-05-22 00:55:01;12,52;1015,05;6;0;0
2022-05-22 00:56:01;12,57;1015,07;6;0;0
2022-05-22 00:57:01;12,63;1015,01;6;0;0
2022-05-22 00:58:01;12,45;1014,99;6;0;0
2022-05-22 00:59:01;12,51;1015,02;6;0;0
2022-05-22 01:00:01;12,61;1015,09;6;0;0
2022-05-22 01:01:01;12,57;1015,09;7;0;0
2022-05-22 01:02:01;12,52;1015,04;7;0;0
2022-05-22 01:03:01;12,47;1015,03;6;0;0
2022-05-22 01:04:01;12,49;1015,02;6;0;0
2022-05-22 01:05:01;12,52;1015,08;6;0;0
2022-05-22 01:06:02;12,62;1015,05;6;0;0
2022-05-22 01:07:01;12,55;1015,02;7;0;0
2022-05-22 01:08:01;12,36;1015,05;6;0;0
2022-05-22 01:09:01;12,42;1014,99;6;0;0
2022-05-22 01:10:01;12,5;1014,91;6;0;0
2022-05-22 01:11:01;12,44;1014,88;7;0;0
2022-05-22 01:12:01;12,28;1014,85;5;0;0
2022-05-22 01:13:01;12,23;1014,78;6;0;0
2022-05-22 01:14:01;12,2;1014,84;6;0;0
2022-05-22 01:15:01;12,21;1014,87;7;0;0
2022-05-22 01:16:01;12,18;1014,87;5;0;0
2022-05-22 01:17:01;12,03;1014,82;6;0;0
2022-05-22 01:18:01;12,11;1014,83;6;0;0
2022-05-22 01:19:01;12,12;1014,88;6;0;0
2022-05-22 01:20:01;12,17;1014,89;4;0;0
2022-05-22 01:21:01;12,03;1014,94;6;0;0
2022-05-22 01:22:02;12,03;1014,93;6;0;0
2022-05-22 01:23:01;12,06;1014,94;6;0;0
2022-05-22 01:24:01;12,06;1014,95;6;0;0
2022-05-22 01:25:01;11,9;1014,94;6;0;0
2022-05-22 01:26:01;11,88;1014,83;6;0;0
2022-05-22 01:27:01;11,96;1014,83;6;0;0
2022-05-22 01:28:01;12,02;1014,79;7;0;0
2022-05-22 01:29:01;11,9;1014,78;6;0;0
2022-05-22 01:30:01;11,8;1014,76;6;0;0
2022-05-22 01:31:01;11,86;1014,81;6;0;0
2022-05-22 01:32:02;11,92;1014,83;6;0;0
2022-05-22 01:33:01;11,93;1014,75;6;0;0
2022-05-22 01:34:01;11,86;1014,74;6;0;0
2022-05-22 01:35:01;11,94;1014,72;6;0;0
2022-05-22 01:36:01;11,86;1014,69;6;0;0
2022-05-22 01:37:01;11,9;1014,71;7;0;0
2022-05-22 01:38:01;11,97;1014,69;6;0;0
2022-05-22 01:39:01;11,92;1014,7;6;0;0
2022-05-22 01:40:01;11,85;1014,7;6;0;0
2022-05-22 01:41:01;11,71;1014,72;6;0;0
2022-05-22 01:42:01;11,81;1014,69;6;0;0
2022-05-22 01:43:01;11,98;1014,68;6;0;0
2022-05-22 01:44:02;11,82;1014,68;7;0;0
2022-05-22 01:45:01;11,91;1014,68;7;0;0
2022-05-22 01:46:01;11,93;1014,69;6;0;0
2022-05-22 01:47:01;11,86;1014,68;6;0;0
2022-05-22 01:48:01;11,66;1014,67;5;0;0
2022-05-22 01:49:01;11,76;1014,62;7;0;0
2022-05-22 01:50:01;11,97;1014,64;6;0;0
2022-05-22 01:51:02;11,8;1014,64;6;0;0
2022-05-22 01:52:01;11,59;1014,66;6;0;0
2022-05-22 01:53:01;11,67;1014,68;6;0;0
2022-05-22 01:54:01;11,62;1014,69;6;0;0
2022-05-22 01:55:02;11,72;1014,65;6;0;0
2022-05-22 01:56:01;11,83;1014,64;6;0;0
2022-05-22 01:57:01;11,82;1014,6;6;0;0
2022-05-22 01:58:02;11,89;1014,66;6;0;0
2022-05-22 01:59:01;11,86;1014,67;6;0;0
2022-05-22 02:00:01;11,56;1014,67;6;0;0
2022-05-22 02:01:01;11,65;1014,68;6;0;0
2022-05-22 02:02:01;11,8;1014,67;5;0;0
2022-05-22 02:03:01;11,88;1014,68;5;0;0
2022-05-22 02:04:02;11,74;1014,68;5;0;0
2022-05-22 02:05:01;11,79;1014,69;6;0;0
2022-05-22 02:06:01;11,7;1014,68;5;0;0
2022-05-22 02:07:01;11,82;1014,64;5;0;0
2022-05-22 02:08:01;11,69;1014,64;5;0;0
2022-05-22 02:09:02;11,66;1014,61;6;0;0
2022-05-22 02:10:01;11,76;1014,6;7;0;0
2022-05-22 02:11:01;11,63;1014,62;6;0;0
2022-05-22 02:12:01;11,71;1014,61;7;0;0
2022-05-22 02:13:01;11,62;1014,64;6;0;0
2022-05-22 02:14:01;11,6;1014,66;6;0;0
2022-05-22 02:15:01;11,68;1014,64;6;0;0
2022-05-22 02:16:01;11,62;1014,65;6;0;0
2022-05-22 02:17:02;11,49;1014,67;6;0;0
2022-05-22 02:18:01;11,67;1014,66;6;0;0
2022-05-22 02:19:01;11,72;1014,65;6;0;0
2022-05-22 02:20:01;11,74;1014,63;6;0;0
2022-05-22 02:21:01;11,65;1014,64;5;0;0
2022-05-22 02:22:01;11,45;1014,65;5;0;0
2022-05-22 02:23:01;11,61;1014,65;6;0;0
2022-05-22 02:24:01;11,6;1014,63;5;0;0
2022-05-22 02:25:01;11,51;1014,65;5;0;0
2022-05-22 02:26:01;11,44;1014,68;6;0;0
2022-05-22 02:27:01;11,57;1014,66;6;0;0
2022-05-22 02:28:01;11,74;1014,68;5;0;0
2022-05-22 02:29:01;11,63;1014,7;6;0;0
2022-05-22 02:30:01;11,5;1014,69;5;0;0
2022-05-22 02:31:01;11,84;1014,69;5;0;0
2022-05-22 02:32:01;11,68;1014,66;6;0;0
2022-05-22 02:33:01;11,73;1014,64;5;0;0
2022-05-22 02:34:01;11,69;1014,67;5;0;0
2022-05-22 02:35:01;11,61;1014,69;6;0;0
2022-05-22 02:36:01;11,56;1014,64;6;0;0
2022-05-22 02:37:01;11,71;1014,67;6;0;0
2022-05-22 02:38:01;11,66;1014,69;5;0;0
2022-05-22 02:39:01;11,64;1014,67;5;0;0
2022-05-22 02:40:02;11,68;1014,66;6;0;0
2022-05-22 02:41:02;11,56;1014,64;6;0;0
2022-05-22 02:42:01;11,65;1014,64;6;0;0
2022-05-22 02:43:01;11,76;1014,58;6;0;0
2022-05-22 02:44:01;11,7;1014,61;6;0;0
2022-05-22 02:45:01;11,51;1014,64;6;0;0
2022-05-22 02:46:01;11,74;1014,58;5;0;0
2022-05-22 02:47:02;11,75;1014,62;6;0;0
2022-05-22 02:48:01;11,7;1014,64;5;0;0
2022-05-22 02:49:01;11,78;1014,59;6;0;0
2022-05-22 02:50:01;11,73;1014,58;6;0;0
2022-05-22 02:51:01;11,69;1014,59;5;0;0
2022-05-22 02:52:01;11,75;1014,61;5;0;0
2022-05-22 02:53:01;11,52;1014,65;5;0;0
2022-05-22 02:54:01;11,6;1014,63;5;0;0
2022-05-22 02:55:02;11,66;1014,59;6;0;0
2022-05-22 02:56:01;11,77;1014,6;6;0;0
2022-05-22 02:57:01;11,73;1014,56;7;0;0
2022-05-22 02:58:01;11,71;1014,6;5;0;0
2022-05-22 02:59:02;11,68;1014,61;6;0;0
2022-05-22 03:00:01;11,85;1014,55;6;0;0
2022-05-22 03:01:01;11,93;1014,58;6;0;0
2022-05-22 03:02:01;11,85;1014,63;5;0;0
2022-05-22 03:03:02;11,63;1014,63;6;0;0
2022-05-22 03:04:01;11,8;1014,59;6;0;0
2022-05-22 03:05:01;11,85;1014,63;6;0;0
2022-05-22 03:06:01;11,69;1014,63;5;0;0
2022-05-22 03:07:01;11,73;1014,67;6;0;0
2022-05-22 03:08:01;11,74;1014,62;6;0;0
2022-05-22 03:09:01;11,77;1014,63;6;0;0
2022-05-22 03:10:02;11,79;1014,63;6;0;0
2022-05-22 03:11:01;11,96;1014,55;6;0;0
2022-05-22 03:12:01;11,92;1014,56;5;0;0
2022-05-22 03:13:02;11,94;1014,57;5;0;0
2022-05-22 03:14:01;11,76;1014,59;5;0;0
2022-05-22 03:15:01;11,89;1014,6;5;0;0
2022-05-22 03:16:01;11,96;1014,52;5;0;0
2022-05-22 03:17:01;11,84;1014,57;6;0;0
2022-05-22 03:18:01;11,97;1014,55;5;0;0
2022-05-22 03:19:01;11,94;1014,54;5;0;0
2022-05-22 03:20:01;11,8;1014,52;5;0;0
2022-05-22 03:21:01;11,9;1014,53;5;0;0
2022-05-22 03:22:01;11,98;1014,52;6;0;0
2022-05-22 03:23:02;11,95;1014,51;6;0;0
2022-05-22 03:24:01;11,89;1014,44;5;0;0
2022-05-22 03:25:01;11,81;1014,39;6;0;0
2022-05-22 03:26:01;12;1014,41;6;0;0
2022-05-22 03:27:01;11,99;1014,43;6;0;0
2022-05-22 03:28:01;11,94;1014,39;5;0;0
2022-05-22 03:29:01;12,1;1014,35;5;0;0
2022-05-22 03:30:01;11,91;1014,39;6;0;0
2022-05-22 03:31:01;11,76;1014,47;4;0;0
2022-05-22 03:32:01;11,8;1014,51;4;0;0
2022-05-22 03:33:01;11,86;1014,45;6;0;0
2022-05-22 03:34:02;11,94;1014,48;6;0;0
2022-05-22 03:35:01;12,07;1014,55;6;0;0
2022-05-22 03:36:01;12,08;1014,54;5;0;0
2022-05-22 03:37:01;12;1014,56;5;0;0
2022-05-22 03:38:01;12;1014,62;5;0;0
2022-05-22 03:39:01;12,09;1014,57;5;0;0
2022-05-22 03:40:01;12,03;1014,49;5;0;0
2022-05-22 03:41:01;12,13;1014,41;5;0;0
2022-05-22 03:42:01;12,09;1014,42;5;0;0
2022-05-22 03:43:01;12,16;1014,49;5;0;0
2022-05-22 03:44:01;12,13;1014,52;5;0;0
2022-05-22 03:45:01;12,13;1014,53;4;0;0
2022-05-22 03:46:01;11,96;1014,55;5;0;0
2022-05-22 03:47:02;12,17;1014,58;6;0;0
2022-05-22 03:48:01;12,13;1014,61;6;0;0
2022-05-22 03:49:01;12,12;1014,6;5;0;0
2022-05-22 03:50:01;12,34;1014,61;5;0;0
2022-05-22 03:51:01;12,29;1014,61;6;0;0
2022-05-22 03:52:01;12,39;1014,63;5;0;0
2022-05-22 03:53:01;12,5;1014,61;5;0;0
2022-05-22 03:54:01;12,36;1014,59;5;0;0
2022-05-22 03:55:01;12,27;1014,56;6;0;0
2022-05-22 03:56:01;12,43;1014,57;4;0;0
2022-05-22 03:57:01;12,45;1014,51;4;0;0
2022-05-22 03:58:01;12,3;1014,53;5;0;0
2022-05-22 03:59:02;12,32;1014,49;5;0;0
2022-05-22 04:00:01;12,55;1014,47;5;0;0
2022-05-22 04:01:02;12,39;1014,56;6;0;0
2022-05-22 04:02:01;12,53;1014,5;5;0;0
2022-05-22 04:03:01;12,7;1014,42;5;0;0
2022-05-22 04:04:01;12,62;1014,45;6;0;0
2022-05-22 04:05:01;12,39;1014,46;4;0;0
2022-05-22 04:06:01;12,67;1014,41;6;0;0
2022-05-22 04:07:01;12,5;1014,44;5;0;0
2022-05-22 04:08:01;12,71;1014,42;6;0;0
2022-05-22 04:09:01;12,6;1014,47;6;0;0
2022-05-22 04:10:01;12,63;1014,48;5;0;0
2022-05-22 04:11:01;12,57;1014,47;6;0;0
2022-05-22 04:12:01;12,73;1014,51;6;0;0
2022-05-22 04:13:01;12,71;1014,56;5;0;0
2022-05-22 04:14:01;12,58;1014,51;6;0;0
2022-05-22 04:15:01;12,62;1014,46;5;0;0
2022-05-22 04:16:01;12,94;1014,45;6;0;0
2022-05-22 04:17:01;12,61;1014,54;5;0;0
2022-05-22 04:18:01;12,73;1014,61;6;0;0
2022-05-22 04:19:01;12,73;1014,52;6;0;0
2022-05-22 04:20:01;12,65;1014,56;6;0;0
2022-05-22 04:21:01;12,68;1014,53;7;0;0
2022-05-22 04:22:01;12,91;1014,51;6;0;0
2022-05-22 04:23:01;12,79;1014,56;6;0;0
2022-05-22 04:24:01;12,93;1014,55;6;0;0
2022-05-22 04:25:01;12,88;1014,52;7;0;0
2022-05-22 04:26:01;12,79;1014,56;7;0;0
2022-05-22 04:27:01;12,7;1014,49;7;0;0
2022-05-22 04:28:02;12,81;1014,48;6;0;0
2022-05-22 04:29:01;12,82;1014,49;7;0;0
2022-05-22 04:30:01;12,85;1014,46;7;0;0
2022-05-22 04:31:01;12,7;1014,47;8;0;0
2022-05-22 04:32:01;12,87;1014,46;9;0;0
2022-05-22 04:33:01;12,81;1014,45;9;0;0
2022-05-22 04:34:01;12,89;1014,42;9;0;0
2022-05-22 04:35:01;12,88;1014,49;10;0;0
2022-05-22 04:36:01;12,67;1014,49;11;0;0
2022-05-22 04:37:01;12,74;1014,5;13;0;0
2022-05-22 04:38:01;12,82;1014,5;14;0;0
2022-05-22 04:39:01;12,94;1014,48;16;0;0
2022-05-22 04:40:01;12,85;1014,53;19;0;0
2022-05-22 04:41:01;12,96;1014,53;24;0;0
2022-05-22 04:42:02;12,86;1014,53;32;0;0
2022-05-22 04:43:01;12,78;1014,55;39;0;0
2022-05-22 04:44:01;12,9;1014,56;47;0;0
2022-05-22 04:45:01;12,84;1014,53;51;0;0
2022-05-22 04:46:01;12,78;1014,55;53;0;0
2022-05-22 04:47:02;12,82;1014,58;54;0;0
2022-05-22 04:48:01;12,75;1014,51;52;0;0
2022-05-22 04:49:01;12,7;1014,54;49;0;0
2022-05-22 04:50:01;12,79;1014,55;52;0;0
2022-05-22 04:51:01;12,84;1014,52;59;0;0
2022-05-22 04:52:01;12,74;1014,54;67;0;0
2022-05-22 04:53:01;12,86;1014,53;85;0;0
2022-05-22 04:54:01;13,06;1014,52;109;0;0
2022-05-22 04:55:01;12,86;1014,5;126;0;0
2022-05-22 04:56:02;12,79;1014,53;145;0;0
2022-05-22 04:57:01;12,83;1014,58;161;0;0
2022-05-22 04:58:01;12,91;1014,49;171;0;0
2022-05-22 04:59:01;12,82;1014,46;183;0;0
2022-05-22 05:00:02;12,89;1014,46;207;0;0
2022-05-22 05:01:01;13,05;1014,44;247;0;0
2022-05-22 05:02:01;12,9;1014,41;291;0;0
2022-05-22 05:03:02;12,88;1014,44;342;0;0
2022-05-22 05:04:01;13;1014,48;391;0;0
2022-05-22 05:05:01;12,88;1014,5;417;0;0
2022-05-22 05:06:02;12,78;1014,51;441;0;0
2022-05-22 05:07:01;13,01;1014,42;464;0;0
2022-05-22 05:08:01;12,93;1014,47;477;0;0
2022-05-22 05:09:01;12,95;1014,46;489;0;0
2022-05-22 05:10:01;12,86;1014,48;498;0;0
2022-05-22 05:11:01;12,79;1014,48;499;0;0
2022-05-22 05:12:01;12,89;1014,51;500;0;0
2022-05-22 05:13:01;12,88;1014,49;494;0;0
2022-05-22 05:14:01;12,98;1014,46;467;0;0
2022-05-22 05:15:01;12,92;1014,45;466;0;0
2022-05-22 05:16:01;12,92;1014,4;502;0;0
2022-05-22 05:17:01;12,83;1014,47;554;0;0
2022-05-22 05:18:01;12,98;1014,44;591;0;0
2022-05-22 05:19:01;12,88;1014,48;604;0;0
2022-05-22 05:20:01;12,84;1014,42;648;0;0
2022-05-22 05:21:01;12,69;1014,43;693;0;0
2022-05-22 05:22:01;12,95;1014,41;687;0;0
2022-05-22 05:23:02;12,99;1014,32;692;0;0
2022-05-22 05:24:01;13,02;1014,36;686;0;0
2022-05-22 05:25:01;12,91;1014,43;686;0;0
2022-05-22 05:26:01;12,96;1014,43;679;0;0
2022-05-22 05:27:01;12,98;1014,41;678;0;0
2022-05-22 05:28:01;13;1014,42;690;0;0
2022-05-22 05:29:01;13,1;1014,38;722;0;0
2022-05-22 05:30:01;13,12;1014,37;772;0;0
2022-05-22 05:31:01;13,14;1014,4;840;0;0
2022-05-22 05:32:01;12,89;1014,27;896;0;0
2022-05-22 05:33:01;12,84;1014,25;932;0;0
2022-05-22 05:34:02;13,08;1014,28;958;0;0
2022-05-22 05:35:01;13,07;1014,27;973;0;0
2022-05-22 05:36:01;12,95;1014,27;996;0;0
2022-05-22 05:37:01;12,96;1014,29;1017;0;0
2022-05-22 05:38:01;13;1014,3;1024;0;0
2022-05-22 05:39:01;12,89;1014,24;1033;0;0
2022-05-22 05:40:01;12,97;1014,32;1048;0;0
2022-05-22 05:41:02;13,09;1014,33;1070;0;0
2022-05-22 05:42:01;12,92;1014,35;1095;0;0
2022-05-22 05:43:01;12,98;1014,36;1126;0;0
2022-05-22 05:44:01;12,93;1014,33;1132;0;0
2022-05-22 05:45:01;12,84;1014,27;1141;0;0
2022-05-22 05:46:01;13,05;1014,27;1160;0;0
2022-05-22 05:47:01;13,02;1014,31;1178;0;0
2022-05-22 05:48:01;13,15;1014,35;1200;0;0
2022-05-22 05:49:01;12,91;1014,35;1239;0;0
2022-05-22 05:50:01;12,94;1014,31;1288;0;0
2022-05-22 05:51:01;12,97;1014,25;1352;0;0
2022-05-22 05:52:01;13,03;1014,16;1422;0;0
2022-05-22 05:53:01;13,11;1014,18;1461;0;0
2022-05-22 05:54:01;13,04;1014,22;1468;0;0
2022-05-22 05:55:01;13,11;1014,24;1448;0;0
2022-05-22 05:56:01;13,08;1014,2;1439;0;0
2022-05-22 05:57:01;13,01;1014,2;1436;0;0
2022-05-22 05:58:01;13,19;1014,18;1434;0;0
2022-05-22 05:59:01;13,1;1014,15;1430;0;0
2022-05-22 06:00:02;12,98;1014,16;1420;0;0
2022-05-22 06:01:01;13,13;1014,15;1408;0;0
2022-05-22 06:02:01;13,25;1014,11;1402;0;0
2022-05-22 06:03:01;13,07;1014,17;1396;0;0
2022-05-22 06:04:02;13,16;1014,13;1389;0;0
2022-05-22 06:05:01;13,1;1014,11;1383;0;0
2022-05-22 06:06:01;13,17;1014,08;1354;0;0
2022-05-22 06:07:01;12,99;1014,07;1335;0;0
2022-05-22 06:08:02;13,05;1014,08;1361;0;0
2022-05-22 06:09:01;13,08;1014,06;1363;0;0
2022-05-22 06:10:01;13,13;1014,21;1370;0;0
2022-05-22 06:11:01;12,96;1014,28;1399;0;0
2022-05-22 06:12:01;12,85;1014,32;1377;0;0
2022-05-22 06:13:01;13,02;1014,36;1356;0;0
2022-05-22 06:14:02;12,98;1014,33;1342;0;0
2022-05-22 06:15:01;12,98;1014,36;1368;0;0
2022-05-22 06:16:01;12,86;1014,3;1391;0;0
2022-05-22 06:17:01;13;1014,33;1405;0;0
2022-05-22 06:18:01;12,96;1014,32;1401;0;0
2022-05-22 06:19:02;13,06;1014,36;1370;0;0
2022-05-22 06:20:01;12,94;1014,35;1371;0;0
2022-05-22 06:21:01;13,1;1014,29;1370;0;0
2022-05-22 06:22:01;13,03;1014,34;1387;0;0
2022-05-22 06:23:01;13,06;1014,34;1417;0;0
2022-05-22 06:24:01;12,92;1014,37;1438;0;0
2022-05-22 06:25:01;12,97;1014,36;1432;0;0
2022-05-22 06:26:01;13,14;1014,35;1420;0;0
2022-05-22 06:27:01;13,08;1014,31;1423;0;0
2022-05-22 06:28:01;13,06;1014,4;1448;0;0
2022-05-22 06:29:01;13,17;1014,37;1464;0;0
2022-05-22 06:30:01;13,03;1014,32;1471;0;0
2022-05-22 06:31:01;13,06;1014,37;1490;0;0
2022-05-22 06:32:01;13,28;1014,42;1530;0;0
2022-05-22 06:33:01;13,11;1014,37;1586;0;0
2022-05-22 06:34:01;13,13;1014,31;1618;0;0
2022-05-22 06:35:01;13,13;1014,33;1645;0;0
2022-05-22 06:36:01;13,19;1014,28;1653;0;0
2022-05-22 06:37:01;13,18;1014,26;1649;0;0
2022-05-22 06:38:01;13,07;1014,35;1648;0;0
2022-05-22 06:39:01;13,15;1014,39;1644;0;0
2022-05-22 06:40:01;13,11;1014,45;1641;0;0
2022-05-22 06:41:01;13,03;1014,37;1655;0;0
2022-05-22 06:42:01;13,08;1014,36;1667;0;0
2022-05-22 06:43:01;13,1;1014,4;1695;0;0
2022-05-22 06:44:01;13;1014,42;1695;0;0
2022-05-22 06:45:02;12,96;1014,32;1677;0;0
2022-05-22 06:46:01;12,99;1014,33;1677;0;0
2022-05-22 06:47:01;13,07;1014,39;1680;0;0
2022-05-22 06:48:01;13,15;1014,35;1691;0;0
2022-05-22 06:49:01;13,17;1014,32;1716;0;0
2022-05-22 06:50:01;13,13;1014,39;1705;0;0
2022-05-22 06:51:01;13,07;1014,38;1682;0;0
2022-05-22 06:52:01;13,16;1014,37;1649;0;0
2022-05-22 06:53:01;13,16;1014,43;1638;0;0
2022-05-22 06:54:01;13,21;1014,44;1651;0;0
2022-05-22 06:55:01;13,25;1014,4;1656;0;0
2022-05-22 06:56:01;13,33;1014,4;1671;0;0
2022-05-22 06:57:01;13,33;1014,4;1692;0;0
2022-05-22 06:58:01;13,13;1014,32;1703;0;0
2022-05-22 06:59:02;13,26;1014,35;1743;0;0
2022-05-22 07:00:01;13,28;1014,32;1793;0;0
2022-05-22 07:01:01;13,23;1014,41;1835;0;0
2022-05-22 07:02:01;13,21;1014,38;1868;0;0
2022-05-22 07:03:01;13,27;1014,37;1885;0;0
2022-05-22 07:04:01;13,36;1014,34;1940;0;0
2022-05-22 07:05:01;13,38;1014,28;1967;0;0
2022-05-22 07:06:01;13,55;1014,21;1973;0;0
2022-05-22 07:07:01;13,45;1014,27;1973;0;0
2022-05-22 07:08:01;13,56;1014,28;1983;0;0
2022-05-22 07:09:01;13,55;1014,35;1989;0;0
2022-05-22 07:10:01;13,51;1014,33;1998;0;0
2022-05-22 07:11:02;13,68;1014,33;2001;0;0
2022-05-22 07:12:01;13,54;1014,33;1998;0;0
2022-05-22 07:13:01;13,68;1014,29;1978;0;0
2022-05-22 07:14:01;13,49;1014,37;1970;0;0
2022-05-22 07:15:01;13,71;1014,3;1957;0;0
2022-05-22 07:16:01;13,78;1014,34;1974;0;0
2022-05-22 07:17:01;13,89;1014,35;1997;0;0
2022-05-22 07:18:01;13,66;1014,32;2023;0;0
2022-05-22 07:19:01;13,84;1014,36;2041;0;0
2022-05-22 07:20:01;13,82;1014,33;2074;0;0
2022-05-22 07:21:01;13,92;1014,34;2104;0;0
2022-05-22 07:22:01;13,97;1014,37;2140;0;0
2022-05-22 07:23:02;13,9;1014,4;2166;0;0
2022-05-22 07:24:01;14,05;1014,5;2180;0;0
2022-05-22 07:25:01;14,2;1014,5;2175;0;0
2022-05-22 07:26:02;14,33;1014,54;2197;0;0
2022-05-22 07:27:01;14,28;1014,51;2254;0;0
2022-05-22 07:28:01;14,29;1014,51;2247;0;0
2022-05-22 07:29:01;14,39;1014,46;2198;0;0
2022-05-22 07:30:01;14,49;1014,52;2123;0;0
2022-05-22 07:31:01;14,58;1014,52;2053;0;0
2022-05-22 07:32:01;14,59;1014,51;2007;0;0
2022-05-22 07:33:01;14,56;1014,44;2017;0;0
2022-05-22 07:34:01;14,41;1014,42;2038;0;0
2022-05-22 07:35:01;14,39;1014,45;2025;0;0
2022-05-22 07:36:01;14,53;1014,46;2010;0;0
2022-05-22 07:37:01;14,41;1014,4;1943;0;0
2022-05-22 07:38:01;14,38;1014,47;1897;0;0
2022-05-22 07:39:01;14,19;1014,48;1883;0;0
2022-05-22 07:40:01;14,31;1014,43;1872;0;0
2022-05-22 07:41:01;14,13;1014,44;1858;0;0
2022-05-22 07:42:01;14,07;1014,37;1864;0;0
2022-05-22 07:43:01;14,25;1014,31;1930;0;0
2022-05-22 07:44:02;14,12;1014,41;2005;0;0
2022-05-22 07:45:01;14,07;1014,43;2046;0;0
2022-05-22 07:46:01;14,07;1014,32;2089;0;0
2022-05-22 07:47:01;14,01;1014,42;2099;0;0
2022-05-22 07:48:01;14,07;1014,37;2072;0;0
2022-05-22 07:49:01;14,19;1014,33;2018;0;0
2022-05-22 07:50:01;13,96;1014,34;2042;0;0
2022-05-22 07:51:01;14,25;1014,33;2096;0;0
2022-05-22 07:52:01;14,17;1014,31;2167;0;0
2022-05-22 07:53:01;14,35;1014,25;2189;0;0
2022-05-22 07:54:01;14,33;1014,36;2206;0;0
2022-05-22 07:55:01;14,32;1014,3;2188;0;0
2022-05-22 07:56:01;14,38;1014,28;2180;0;0
2022-05-22 07:57:01;14,52;1014,27;2121;0;0
2022-05-22 07:58:01;14,61;1014,34;2125;0;0
2022-05-22 07:59:01;14,69;1014,35;2187;0;0
2022-05-22 08:00:01;14,82;1014,45;2211;0;0
2022-05-22 08:01:01;14,72;1014,47;2140;0;0
2022-05-22 08:02:01;14,9;1014,38;2052;0;0
2022-05-22 08:03:01;14,86;1014,34;2037;0;0
2022-05-22 08:04:01;14,7;1014,41;2002;0;0
2022-05-22 08:05:01;14,78;1014,44;2014;0;0
2022-05-22 08:06:01;14,93;1014,34;2015;0;0
2022-05-22 08:07:01;14,7;1014,39;2049;0;0
2022-05-22 08:08:01;14,76;1014,35;2060;0;0
2022-05-22 08:09:01;14,81;1014,36;2091;0;0
2022-05-22 08:10:01;14,83;1014,37;2086;0;0
2022-05-22 08:11:01;14,88;1014,37;2068;0;0
2022-05-22 08:12:01;14,92;1014,34;2082;0;0
2022-05-22 08:13:01;14,82;1014,35;2090;0;0
2022-05-22 08:14:01;14,99;1014,34;2109;0;0
2022-05-22 08:15:01;15,03;1014,3;2151;0;0
2022-05-22 08:16:01;15,08;1014,3;2141;0;0
2022-05-22 08:17:01;15,15;1014,27;2083;0;0
2022-05-22 08:18:01;15,26;1014,31;1989;0;0
2022-05-22 08:19:01;15,04;1014,26;1924;0;0
2022-05-22 08:20:01;15,05;1014,28;1924;0;0
2022-05-22 08:21:01;14,95;1014,28;1939;0;0
2022-05-22 08:22:01;14,96;1014,25;1976;0;0
2022-05-22 08:23:01;14,72;1014,35;1990;0;0
2022-05-22 08:24:01;14,89;1014,38;1967;0;0
2022-05-22 08:25:01;14,76;1014,39;1987;0;0
2022-05-22 08:26:01;14,84;1014,36;2017;0;0
2022-05-22 08:27:01;15,01;1014,38;2018;0;0
2022-05-22 08:28:01;15,05;1014,43;2064;0;0
2022-05-22 08:29:02;15,16;1014,41;2163;0;0
2022-05-22 08:30:01;15,04;1014,43;2178;0;0
2022-05-22 08:31:01;15,19;1014,39;2115;0;0
2022-05-22 08:32:01;15,18;1014,34;2110;0;0
2022-05-22 08:33:01;15,19;1014,3;2060;0;0
2022-05-22 08:34:01;15;1014,35;2073;0;0
2022-05-22 08:35:01;15,34;1014,32;2066;0;0
2022-05-22 08:36:01;15,23;1014,21;2188;0;0
2022-05-22 08:37:01;15,27;1014,25;2218;0;0
2022-05-22 08:38:01;15,44;1014,26;2261;0;0
2022-05-22 08:39:01;15,46;1014,29;2197;0;0
2022-05-22 08:40:01;15,59;1014,29;2243;0;0
2022-05-22 08:41:01;15,79;1014,17;2307;0;0
2022-05-22 08:42:01;16,02;1014,14;2353;0;0
2022-05-22 08:43:01;16,14;1014,11;2295;0;0
2022-05-22 08:44:01;16,22;1014,03;2258;0;0
2022-05-22 08:45:01;16,5;1014,08;2375;0;0
2022-05-22 08:46:01;16,48;1014,11;2449;0;0
2022-05-22 08:47:01;16,56;1014,07;2358;0;0
2022-05-22 08:48:01;16,7;1014,05;2242;0;0
2022-05-22 08:49:02;16,73;1013,99;2310;0;0
2022-05-22 08:50:01;16,76;1014,01;2388;0;0
2022-05-22 08:51:01;16,82;1014,02;2407;0;0
2022-05-22 08:52:01;16,57;1013,96;2376;0;0
2022-05-22 08:53:01;16,85;1014,02;2344;0;0
2022-05-22 08:54:01;16,86;1014,12;2239;0;0
2022-05-22 08:55:01;16,88;1014,06;2159;0;0
2022-05-22 08:56:01;16,8;1013,99;2132;0;0
2022-05-22 08:57:01;16,59;1013,98;2143;0;0
2022-05-22 08:58:01;16,5;1013,94;2174;0;0
2022-05-22 08:59:01;16,56;1013,98;2183;0;0
2022-05-22 09:00:01;16,4;1013,94;2248;0;0
2022-05-22 09:01:01;16,29;1013,91;2312;0;0
2022-05-22 09:02:01;16,34;1013,88;2328;0;0
2022-05-22 09:03:01;16,18;1013,89;2279;0;0
2022-05-22 09:04:02;16,26;1013,91;2269;0;0
2022-05-22 09:05:01;16,19;1013,82;2174;0;0
2022-05-22 09:06:01;16,19;1013,81;2256;0;0
2022-05-22 09:07:01;16,03;1013,77;2274;0;0
2022-05-22 09:08:01;16,15;1013,74;2255;0;0
2022-05-22 09:09:01;16,42;1013,73;2283;0;0
2022-05-22 09:10:01;16,54;1013,76;2301;0;0
2022-05-22 09:11:01;16,65;1013,75;2254;0;0
2022-05-22 09:12:01;16,62;1013,73;2229;0;0
2022-05-22 09:13:01;16,57;1013,73;2145;0;0
2022-05-22 09:14:01;16,6;1013,72;2143;0;0
2022-05-22 09:15:01;16,5;1013,72;2186;0;0
2022-05-22 09:16:01;16,71;1013,72;2158;0;0
2022-05-22 09:17:01;16,54;1013,72;2134;0;0
2022-05-22 09:18:01;16,6;1013,72;2188;0;0
2022-05-22 09:19:01;16,54;1013,72;2265;2,23;65
2022-05-22 09:20:01;16,34;1013,74;2248;0;0
2022-05-22 09:21:01;16,36;1013,73;2182;0;0
2022-05-22 09:22:01;16,28;1013,72;2167;0;0
2022-05-22 09:23:01;16,36;1013,72;2170;0;0
2022-05-22 09:24:02;16,38;1013,72;2192;0;0
2022-05-22 09:25:01;16,43;1013,72;2263;0;0
2022-05-22 09:26:02;16,51;1013,72;2359;0;0
2022-05-22 09:27:01;16,47;1013,72;2374;0;0
2022-05-22 09:28:01;16,74;1013,72;2310;0;0
2022-05-22 09:29:01;16,79;1013,74;2290;0;0
2022-05-22 09:30:02;16,78;1013,73;2175;0;0
2022-05-22 09:31:01;16,82;1013,72;2176;0;0
2022-05-22 09:32:01;16,63;1013,72;2081;0;0
2022-05-22 09:33:01;16,57;1013,72;2024;0;0
2022-05-22 09:34:01;16,6;1013,72;2063;0;0
2022-05-22 09:35:01;16,29;1013,72;2147;0;0
2022-05-22 09:36:01;16,25;1013,72;2294;0;0
2022-05-22 09:37:01;16,44;1013,72;2448;0;0
2022-05-22 09:38:01;16,98;1013,71;2420;0;0
2022-05-22 09:39:01;17,26;1013,7;2365;0;0